Waco, TX

1:30 AM CDT on August 23, 2017 (GMT -0500)
Waco Regional

Weather History for KACT - May, 2013

Change the Weather History Date:

Tuesday, May 21, 2013

  Actual Average Record
Temperature  
Mean Temperature 73 °F 76 °F  
Max Temperature 89 °F 86 °F 99 °F (2005)
Min Temperature 56 °F 65 °F 52 °F (2002)
Degree Days  
Heating Degree Days 0 0  
Month to date heating degree days 41 4  
Since 1 July heating degree days 2023 2140  
Cooling Degree Days 8 11  
Month to date cooling degree days 137 176  
Year to date cooling degree days 275 330  
Growing Degree Days 25 (Base 50)    
Moisture  
Dew Point 66 °F    
Average Humidity 73    
Maximum Humidity 90    
Minimum Humidity 56    
Precipitation  
Precipitation 1.11 in 0.14 in 3.08 in (1905)
Month to date precipitation 2.59 2.87  
Year to date precipitation 13.32 13.46  
Sea Level Pressure  
Sea Level Pressure 29.76 in    
Wind  
Wind Speed 14 mph (SW)    
Max Wind Speed 25 mph    
Max Gust Speed 33 mph    
Visibility 7 miles    
Events Fog , Rain , Thunderstorm    
T = Trace of Precipitation, MM = Missing Value Source: NWS Daily Summary

Daily Weather History Graph

Daily Weather History Graph

Search for Another Location

Airport or City:

Trip Planner

Search our weather history database for the weather conditions in past years. The results will help you decide how hot, cold, wet, or windy it might be!

Date:

Astronomy

May. 21, 2013 Rise Set
Actual Time 6:28 AM CDT 8:22 PM CDT
Civil Twilight 6:01 AM CDT 8:49 PM CDT
Nautical Twilight 5:28 AM CDT 9:22 PM CDT
Astronomical Twilight 4:54 AM CDT 9:57 PM CDT
Moon 4:49 PM CDT (5/21) 3:43 AM CDT (5/21)
Length of Visible Light 14h 48m
Length of Day
13h 54m
Waxing Gibbous, 84% of the Moon is Illuminated
May 21
Waxing Gibbous
May 24
Full
May 31
Last Quarter
Jun 8
New
Jun 16
First Quarter

Hourly Weather History & Observations

Time (CDT) Temp. Heat Index Dew Point Humidity Pressure Visibility Wind Dir Wind Speed Gust Speed Precip Events Conditions
12:51 AM 77.0 °F - 70.0 °F 79% 29.77 in 10.0 mi SSE 19.6 mph - N/A   Clear
1:51 AM 75.0 °F - 70.0 °F 84% 29.74 in 10.0 mi SSE 20.7 mph 26.5 mph N/A   Clear
2:15 AM 75.2 °F - 69.8 °F 83% 29.76 in 10.0 mi SSE 13.8 mph 21.9 mph N/A   Mostly Cloudy
2:51 AM 75.0 °F - 69.1 °F 82% 29.73 in 10.0 mi SSE 20.7 mph - N/A   Overcast
3:51 AM 75.0 °F - 70.0 °F 84% 29.73 in 10.0 mi SSE 18.4 mph - N/A   Overcast
4:49 AM 73.4 °F - 69.8 °F 88% 29.75 in 9.0 mi SSE 17.3 mph 26.5 mph N/A   Overcast
4:51 AM 73.9 °F - 70.0 °F 87% 29.73 in 9.0 mi South 19.6 mph - N/A   Overcast
5:51 AM 73.9 °F - 70.0 °F 87% 29.74 in 9.0 mi SSE 12.7 mph 20.7 mph N/A   Overcast
6:51 AM 75.0 °F - 70.0 °F 84% 29.75 in 7.0 mi SSE 12.7 mph - N/A   Overcast
7:51 AM 75.9 °F - 70.0 °F 82% 29.76 in 7.0 mi SSE 15.0 mph - N/A   Overcast
8:51 AM 78.1 °F - 70.0 °F 76% 29.78 in 7.0 mi South 16.1 mph 24.2 mph N/A   Overcast
9:40 AM 80.6 °F 83.9 °F 69.8 °F 70% 29.79 in 8.0 mi South 20.7 mph 29.9 mph N/A   Overcast
9:51 AM 80.1 °F 83.2 °F 70.0 °F 71% 29.77 in 8.0 mi South 18.4 mph 27.6 mph N/A   Overcast
10:51 AM 84.0 °F 88.4 °F 70.0 °F 63% 29.76 in 8.0 mi South 21.9 mph 29.9 mph N/A   Overcast
11:51 AM 84.0 °F 88.4 °F 70.0 °F 63% 29.76 in 7.0 mi South 20.7 mph 29.9 mph N/A   Overcast
12:51 PM 86.0 °F 90.1 °F 69.1 °F 57% 29.75 in 7.0 mi SSW 19.6 mph 25.3 mph N/A   Mostly Cloudy
1:51 PM 89.1 °F 95.0 °F 71.1 °F 55% 29.73 in 7.0 mi South 16.1 mph 27.6 mph N/A   Mostly Cloudy
2:51 PM 84.9 °F 89.4 °F 70.0 °F 61% 29.71 in 6.0 mi South 15.0 mph 25.3 mph N/A   Haze
3:51 PM 82.9 °F 86.5 °F 69.1 °F 63% 29.67 in 6.0 mi SSW 16.1 mph - N/A   Haze
4:10 PM 73.4 °F - 64.4 °F 73% 29.71 in 7.0 mi NNW 12.7 mph 27.6 mph N/A Thunderstorm Thunderstorm
4:25 PM 66.2 °F - 64.4 °F 94% 29.74 in 4.0 mi NNW 20.7 mph 31.1 mph 0.01 in Rain , Thunderstorm Heavy Thunderstorms and Rain
4:30 PM 64.4 °F - 62.6 °F 94% 29.76 in 1.8 mi NW 21.9 mph 28.8 mph 0.05 in Rain , Thunderstorm Heavy Thunderstorms and Rain
4:35 PM 64.4 °F - 62.6 °F 94% 29.77 in 0.8 mi NW 15.0 mph 28.8 mph 0.18 in Rain , Thunderstorm Heavy Thunderstorms and Rain
4:40 PM 64.4 °F - 62.6 °F 94% 29.78 in 0.2 mi NW 10.4 mph 20.7 mph 0.45 in Fog , Rain , Thunderstorm Heavy Thunderstorms and Rain
4:48 PM 62.6 °F - 62.6 °F 100% 29.78 in 0.2 mi NW 16.1 mph - 0.81 in Fog , Rain , Thunderstorm Heavy Thunderstorms and Rain
4:51 PM 63.0 °F - 61.0 °F 93% 29.76 in 0.5 mi NW 15.0 mph 19.6 mph 0.90 in Fog , Rain , Thunderstorm Heavy Thunderstorms and Rain
4:56 PM 62.6 °F - 60.8 °F 94% 29.77 in 1.0 mi North 13.8 mph - 0.09 in Rain , Thunderstorm Heavy Thunderstorms and Rain
5:12 PM 62.6 °F - 60.8 °F 94% 29.77 in 3.0 mi NNW 12.7 mph - 0.21 in Rain , Thunderstorm Light Thunderstorms and Rain
5:21 PM 62.6 °F - 60.8 °F 94% 29.78 in 10.0 mi NNW 13.8 mph - 0.21 in Rain , Thunderstorm Light Thunderstorms and Rain
5:40 PM 62.6 °F - 60.8 °F 94% 29.78 in 10.0 mi North 11.5 mph - 0.21 in   Overcast
5:51 PM 64.0 °F - 61.0 °F 90% 29.77 in 10.0 mi North 13.8 mph - 0.21 in   Mostly Cloudy
6:51 PM 66.0 °F - 62.1 °F 87% 29.76 in 10.0 mi North 11.5 mph - N/A   Mostly Cloudy
7:51 PM 66.9 °F - 63.0 °F 87% 29.78 in 10.0 mi North 5.8 mph - N/A   Overcast
8:51 PM 64.9 °F - 61.0 °F 87% 29.81 in 10.0 mi North 6.9 mph - N/A   Scattered Clouds
9:51 PM 62.1 °F - 59.0 °F 90% 29.84 in 10.0 mi North 4.6 mph - N/A   Clear
10:51 PM 61.0 °F - 57.9 °F 90% 29.87 in 10.0 mi NNE 3.5 mph - N/A   Clear
11:51 PM 60.1 °F - 57.9 °F 93% 29.88 in 10.0 mi Calm Calm - N/A   Clear